Madisonville, KY

6:32 PM CDT on June 26, 2017 (GMT -0500)
Madisonville

Weather History for K2I0 - March, 2014

Change the Weather History Date:

Tuesday, March 25, 2014

  Actual Average (KOWB) Record (KOWB)
Temperature  
Mean Temperature 35 °F -  
Max Temperature 42 °F 59 °F 83 °F (2007)
Min Temperature 29 °F 37 °F 17 °F (1940)
Degree Days  
Heating Degree Days 30    
Moisture  
Dew Point 24 °F    
Average Humidity 70    
Maximum Humidity 100    
Minimum Humidity 33    
Precipitation  
Precipitation 0.00 in - - ()
Sea Level Pressure  
Sea Level Pressure 30.18 in    
Wind  
Wind Speed 9 mph (NNW)    
Max Wind Speed 23 mph    
Max Gust Speed 33 mph    
Visibility 9 miles    
Events Snow    
Averages and records for this station are not official NWS values.
T = Trace of Precipitation, MM = Missing Value Source: NWS Daily Summary

Daily Weather History Graph

Daily Weather History Graph

Search for Another Location

Airport or City:

Trip Planner

Search our weather history database for the weather conditions in past years. The results will help you decide how hot, cold, wet, or windy it might be!

Date:

Astronomy

Mar. 25, 2014 Rise Set
Actual Time 6:45 AM CDT 7:06 PM CDT
Civil Twilight 6:19 AM CDT 7:32 PM CDT
Nautical Twilight 5:48 AM CDT 8:02 PM CDT
Astronomical Twilight 5:17 AM CDT 8:34 PM CDT
Moon 3:00 AM CDT (3/25) 1:42 PM CDT (3/25)
Length of Visible Light 13h 12m
Length of Day
12h 20m
Waning Crescent, 32% of the Moon is Illuminated
Mar 25
Waning Crescent
Mar 30
New
Apr 7
First Quarter
Apr 15
Full
Apr 22
Last Quarter

Hourly Weather History & Observations

Time (CDT) Temp. Windchill Dew Point Humidity Pressure Visibility Wind Dir Wind Speed Gust Speed Precip Events Conditions
12:15 AM 34.2 °F 28.2 °F 31.6 °F 90% 30.17 in 10.0 mi NNE 6.9 mph - N/A   Overcast
12:35 AM 33.8 °F 28.6 °F 32.0 °F 93% 30.15 in 10.0 mi NNE 5.8 mph - N/A   Overcast
12:55 AM 33.4 °F 26.6 °F 32.0 °F 94% 30.14 in 5.0 mi NNE 8.1 mph - N/A Snow Light Snow
1:15 AM 33.1 °F 25.5 °F 32.7 °F 99% 30.13 in 5.0 mi North 9.2 mph - N/A Snow Light Snow
1:35 AM 32.9 °F 25.9 °F 32.5 °F 99% 30.12 in 4.0 mi North 8.1 mph - N/A Snow Light Snow
1:55 AM 32.9 °F 27.5 °F 32.9 °F 100% 30.12 in 5.0 mi NNE 5.8 mph - N/A Snow Light Snow
2:15 AM 32.2 °F 24.4 °F 32.0 °F 99% 30.11 in 7.0 mi NNE 9.2 mph - N/A   Overcast
2:35 AM 32.2 °F 25.8 °F 31.8 °F 99% 30.11 in 10.0 mi NNE 6.9 mph - N/A   Overcast
2:55 AM 32.2 °F 25.8 °F 31.8 °F 99% 30.10 in 10.0 mi NNE 6.9 mph - N/A   Overcast
3:15 AM 32.2 °F 25.8 °F 31.8 °F 99% 30.10 in 10.0 mi North 6.9 mph - N/A   Overcast
3:35 AM 32.0 °F 26.4 °F 31.5 °F 98% 30.10 in 7.0 mi North 5.8 mph - N/A   Overcast
3:55 AM 32.0 °F 27.5 °F 31.6 °F 99% 30.09 in 7.0 mi North 4.6 mph - N/A   Overcast
4:15 AM 32.0 °F - 31.6 °F 99% 30.09 in 5.0 mi Calm Calm - N/A Snow Light Snow
4:35 AM 31.5 °F - 31.1 °F 99% 30.09 in 5.0 mi Calm Calm - N/A Snow Light Snow
4:55 AM 31.6 °F 28.3 °F 31.3 °F 99% 30.09 in 7.0 mi WNW 3.5 mph - N/A Snow Light Snow
5:15 AM 32.0 °F - 31.5 °F 98% 30.08 in 7.0 mi Calm Calm - N/A   Overcast
5:35 AM 32.0 °F 28.7 °F 31.5 °F 98% 30.09 in 7.0 mi West 3.5 mph - N/A   Overcast
5:55 AM 32.0 °F 26.4 °F 31.3 °F 97% 30.09 in 7.0 mi WNW 5.8 mph - N/A   Overcast
6:15 AM 32.0 °F 27.5 °F 31.3 °F 97% 30.09 in 7.0 mi WNW 4.6 mph - N/A   Overcast
6:35 AM 32.2 °F 26.7 °F 31.3 °F 96% 30.10 in 10.0 mi WNW 5.8 mph - N/A   Overcast
6:55 AM 32.0 °F 25.6 °F 31.1 °F 96% 30.10 in 10.0 mi WNW 6.9 mph - N/A   Overcast
7:15 AM 32.0 °F 25.6 °F 31.3 °F 97% 30.11 in 7.0 mi WNW 6.9 mph - N/A   Overcast
7:35 AM 32.4 °F 25.3 °F 31.6 °F 97% 30.11 in 7.0 mi WNW 8.1 mph - N/A   Mostly Cloudy
7:55 AM 32.9 °F 25.9 °F 31.8 °F 96% 30.12 in 7.0 mi WNW 8.1 mph - N/A   Overcast
8:15 AM 33.6 °F 26.8 °F 31.8 °F 93% 30.13 in 7.0 mi WNW 8.1 mph - N/A   Overcast
8:40 AM 33.1 °F 25.5 °F 31.8 °F 95% 30.14 in 1.2 mi WNW 9.2 mph - N/A Snow Light Snow
8:55 AM 33.1 °F 24.9 °F 32.4 °F 97% 30.14 in 2.0 mi West 10.4 mph - N/A Snow Light Snow
9:15 AM 33.8 °F 25.8 °F 32.2 °F 94% 30.14 in 7.0 mi West 10.4 mph - N/A   Overcast
9:35 AM 34.0 °F 25.5 °F 32.4 °F 94% 30.15 in 2.0 mi WNW 11.5 mph 17.3 mph N/A Snow Light Snow
9:55 AM 34.9 °F 27.1 °F 31.8 °F 89% 30.15 in 7.0 mi NW 10.4 mph 19.6 mph N/A Snow Light Snow
10:15 AM 36.0 °F 29.0 °F 31.3 °F 83% 30.16 in 10.0 mi NW 9.2 mph 19.6 mph N/A   Mostly Cloudy
10:35 AM 37.6 °F 28.8 °F 29.3 °F 72% 30.16 in 10.0 mi NNW 15.0 mph 23.0 mph N/A   Mostly Cloudy
10:55 AM 38.3 °F 28.4 °F 25.9 °F 61% 30.17 in 10.0 mi NNW 19.6 mph 29.9 mph N/A   Mostly Cloudy
11:15 AM 39.4 °F 29.2 °F 22.8 °F 52% 30.17 in 10.0 mi North 21.9 mph 27.6 mph N/A   Mostly Cloudy
11:35 AM 38.7 °F 28.0 °F 22.3 °F 52% 30.18 in 10.0 mi NNW 23.0 mph 31.1 mph N/A   Overcast
11:55 AM 39.7 °F 30.3 °F 21.2 °F 48% 30.18 in 10.0 mi NNW 19.6 mph 31.1 mph N/A   Mostly Cloudy
12:15 PM 38.8 °F 29.1 °F 19.8 °F 46% 30.19 in 10.0 mi NW 19.6 mph 27.6 mph N/A   Mostly Cloudy
12:35 PM 40.3 °F 32.2 °F 18.7 °F 42% 30.19 in 10.0 mi NNW 15.0 mph 28.8 mph N/A   Mostly Cloudy
1:15 PM 40.6 °F 33.0 °F 17.1 °F 39% 30.19 in 10.0 mi NW 13.8 mph 27.6 mph N/A   Mostly Cloudy
1:35 PM 40.3 °F 30.4 °F 15.1 °F 36% 30.19 in 10.0 mi NW 21.9 mph 31.1 mph N/A   Overcast
1:55 PM 40.8 °F 32.6 °F 15.4 °F 36% 30.19 in 10.0 mi NNW 16.1 mph 27.6 mph N/A   Mostly Cloudy
2:15 PM 41.0 °F 32.2 °F 15.1 °F 35% 30.19 in 10.0 mi NNW 18.4 mph 28.8 mph N/A   Mostly Cloudy
2:35 PM 41.2 °F 31.6 °F 14.0 °F 33% 30.19 in 10.0 mi North 21.9 mph 33.4 mph N/A   Mostly Cloudy
2:55 PM 39.2 °F 30.5 °F 13.8 °F 36% 30.20 in 10.0 mi NNW 16.1 mph 28.8 mph N/A   Overcast
3:15 PM 41.5 °F 32.1 °F 15.1 °F 34% 30.19 in 10.0 mi NNW 21.9 mph 28.8 mph N/A   Mostly Cloudy
3:35 PM 41.7 °F 35.2 °F 15.4 °F 35% 30.20 in 10.0 mi NW 11.5 mph 27.6 mph N/A   Mostly Cloudy
3:55 PM 41.4 °F 33.3 °F 15.6 °F 35% 30.20 in 10.0 mi NW 16.1 mph 26.5 mph N/A   Mostly Cloudy
4:15 PM 40.8 °F 33.7 °F 18.1 °F 40% 30.20 in 10.0 mi NNW 12.7 mph 21.9 mph N/A   Mostly Cloudy
4:35 PM 39.2 °F 31.6 °F 16.2 °F 39% 30.21 in 10.0 mi NW 12.7 mph 21.9 mph N/A   Mostly Cloudy
4:55 PM 41.2 °F 33.4 °F 17.8 °F 39% 30.20 in 10.0 mi NNW 15.0 mph 21.9 mph N/A   Mostly Cloudy
5:15 PM 39.6 °F 32.5 °F 17.1 °F 40% 30.21 in 10.0 mi NNW 11.5 mph - N/A   Overcast
5:35 PM 40.6 °F 32.7 °F 17.2 °F 39% 30.21 in 10.0 mi NNW 15.0 mph 21.9 mph N/A   Overcast
5:55 PM 39.6 °F 32.1 °F 19.2 °F 44% 30.22 in 10.0 mi NNW 12.7 mph 17.3 mph N/A   Mostly Cloudy
6:15 PM 37.8 °F 29.4 °F 19.6 °F 48% 30.22 in 10.0 mi North 13.8 mph 21.9 mph N/A   Scattered Clouds
6:35 PM 37.4 °F 29.3 °F 20.3 °F 50% 30.23 in 10.0 mi NNW 12.7 mph 18.4 mph N/A   Clear
6:55 PM 36.1 °F 29.3 °F 21.4 °F 55% 30.24 in 10.0 mi NNW 9.2 mph - N/A   Scattered Clouds
7:15 PM 35.4 °F 28.4 °F 20.8 °F 55% 30.24 in 10.0 mi NNW 9.2 mph - N/A   Scattered Clouds
7:35 PM 34.7 °F 28.1 °F 20.3 °F 56% 30.24 in 10.0 mi NNW 8.1 mph - N/A   Mostly Cloudy
7:55 PM 34.2 °F 27.5 °F 19.9 °F 56% 30.24 in 10.0 mi NNW 8.1 mph - N/A   Scattered Clouds
8:15 PM 33.3 °F 27.9 °F 19.8 °F 58% 30.25 in 10.0 mi NNW 5.8 mph - N/A   Clear
8:35 PM 32.9 °F 28.5 °F 19.8 °F 59% 30.26 in 10.0 mi NW 4.6 mph - N/A   Clear
8:55 PM 32.2 °F 27.7 °F 19.2 °F 59% 30.27 in 10.0 mi NNW 4.6 mph - N/A   Clear
9:15 PM 32.0 °F 28.7 °F 19.0 °F 59% 30.27 in 10.0 mi NW 3.5 mph - N/A   Clear
9:35 PM 31.1 °F 26.4 °F 18.7 °F 60% 30.28 in 10.0 mi NNW 4.6 mph - N/A   Clear
9:55 PM 30.7 °F 26.0 °F 18.3 °F 60% 30.29 in 10.0 mi NNW 4.6 mph - N/A   Clear
10:15 PM 30.7 °F 26.0 °F 18.5 °F 60% 30.29 in 10.0 mi NNW 4.6 mph - N/A   Clear
10:35 PM 30.6 °F 24.7 °F 17.6 °F 59% 30.29 in 10.0 mi North 5.8 mph - N/A   Clear
10:55 PM 29.8 °F 24.9 °F 17.6 °F 60% 30.29 in 10.0 mi North 4.6 mph - N/A   Clear
11:15 PM 29.5 °F 25.9 °F 17.6 °F 61% 30.29 in 10.0 mi North 3.5 mph - N/A   Clear
11:35 PM 29.3 °F 25.6 °F 17.4 °F 61% 30.30 in 10.0 mi North 3.5 mph - N/A   Clear
11:55 PM 29.7 °F 22.8 °F 17.1 °F 59% 30.30 in 10.0 mi North 6.9 mph - N/A   Clear